[[[{"header":{"parameterUnit":"kt","parameterCategory":2,"dx":1,"dy":1,"la1":30.253999710083008,"la2":30.299108505249023,"lo1":-89.0895004272461,"lo2":-89.04439544677734,"nx":28,"ny":28,"refTime":"2022-09-25T21:00:00:Z","depth":0,"parameterNumber":1,"parameterNumberName":"U-component_of_WINDS"},"data":[2.2315,2.2408,2.2451,2.2575,2.2635,2.2727,2.2773,2.2838,2.29,2.3013,2.3086,2.3139,2.3217,2.3314,2.3394,2.3416,2.3446,2.3445,2.3471,2.3434,2.3432,2.3429,2.341,2.3452,2.3452,2.3502,2.3502,2.3502,2.2279,2.2339,2.2419,2.2525,2.2593,2.2619,2.2705,2.2759,2.2841,2.2919,2.2994,2.3097,2.3185,2.3266,2.3357,2.3399,2.3416,2.342,2.3417,2.3429,2.3391,2.3371,2.3405,2.3405,2.3405,2.3405,2.3405,2.3405,2.2224,2.2278,2.2369,2.2456,2.2522,2.2592,2.2651,2.2716,2.2793,2.2895,2.2933,2.3026,2.3112,2.3245,2.33,2.3373,2.3376,2.3395,2.3399,2.3402,2.3398,2.3315,2.3391,2.3391,2.3391,2.3391,2.3391,0,2.2197,2.223,2.2311,2.2403,2.247,2.2546,2.2624,2.2661,2.2747,2.2808,2.29,2.296,2.3078,2.3169,2.3265,2.332,2.3353,2.3362,2.3375,2.3356,2.3326,2.334,2.3275,2.336,2.336,2.336,2.336,2.336,2.2142,2.2202,2.232,2.237,2.2424,2.2505,2.2561,2.2634,2.269,2.2796,2.284,2.2933,2.3011,2.315,2.3226,2.3315,2.3331,2.3358,2.3345,2.3324,2.3329,2.3324,2.3329,2.3359,2.3359,2.3359,2.3359,0,2.2106,2.218,2.2288,2.2399,2.2429,2.2487,2.2582,2.2639,2.2697,2.2784,2.2808,2.2899,2.2988,2.306,2.3178,2.3212,2.3305,2.332,2.3274,2.328,2.3309,2.3305,2.3399,2.3414,2.3374,2.3374,2.3374,0,2.2088,2.2164,2.2269,2.2328,2.2414,2.2486,2.2568,2.2627,2.2705,2.2774,2.2825,2.2888,2.2972,2.3046,2.3098,2.3187,2.321,2.3241,2.3253,2.3236,2.3231,2.3266,2.3263,2.3283,2.3283,2.3282,2.3282,0,2.2022,2.217,2.2266,2.2312,2.2439,2.2482,2.2537,2.2626,2.2682,2.2766,2.2803,2.2896,2.2946,2.3017,2.3082,2.307,2.3194,2.3191,2.3226,2.3224,2.3249,2.3246,2.3312,2.3281,2.3281,2.3281,2.3281,0,2.2018,2.2104,2.2233,2.234,2.2376,2.244,2.2536,2.2608,2.2699,2.2736,2.2803,2.2846,2.2933,2.2923,2.3043,2.3008,2.3054,2.3093,2.3097,2.3108,2.3095,2.312,2.3178,2.3185,2.3118,2.3117,2.3115,0,2.192,2.2072,2.2136,2.2258,2.2338,2.2389,2.2461,2.2541,2.2597,2.2672,2.2735,2.282,2.283,2.2867,2.2917,2.2984,2.3029,2.298,2.3084,2.3087,2.3055,2.311,2.3099,2.3157,2.3099,2.3101,2.3102,0,2.1854,2.2012,2.203,2.2084,2.2204,2.2272,2.2356,2.2457,2.2503,2.259,2.266,2.2785,2.2795,2.2857,2.2903,2.2951,2.3,2.2957,2.296,2.2959,2.3099,2.3087,2.3097,2.302,2.3022,2.3024,2.3089,0,2.1824,2.1913,2.1965,2.2087,2.2152,2.2234,2.2315,2.2372,2.2409,2.2467,2.2574,2.2662,2.2766,2.2798,2.2836,2.2924,2.292,2.2932,2.2929,2.2965,2.2988,2.2998,2.2887,2.2887,2.2887,2.2888,0,0,2.171,2.1839,2.1909,2.1994,2.2053,2.2108,2.2188,2.2252,2.2381,2.2419,2.2418,2.2606,2.2678,2.2799,2.2817,2.2861,2.2883,2.2868,2.2948,2.2954,2.296,2.2984,2.2993,2.2888,2.2888,2.2888,2.2889,0,2.1717,2.1791,2.1872,2.1941,2.2047,2.2106,2.2125,2.224,2.2282,2.2389,2.2432,2.2506,2.2657,2.2726,2.2781,2.2856,2.2884,2.2882,2.2894,2.2948,2.2954,2.2959,2.2983,2.2991,2.2889,2.2889,2.2889,0,2.1663,2.1749,2.1797,2.1938,2.2008,2.2091,2.2106,2.2195,2.2257,2.2313,2.2419,2.2479,2.2579,2.2686,2.2737,2.2737,2.2879,2.2851,2.2851,2.2858,2.2915,2.2921,2.2928,2.2845,2.2844,2.2844,0,0,2.1657,2.1741,2.1857,2.1945,2.1987,2.2077,2.213,2.2173,2.2264,2.2299,2.2378,2.2463,2.2551,2.2608,2.2695,2.2801,2.2827,2.2842,2.2844,2.2845,2.2853,2.291,2.2917,2.2842,2.2842,2.2842,0,0,2.1655,2.1792,2.1815,2.1928,2.2012,2.2132,2.2182,2.2212,2.23,2.23,2.2378,2.2404,2.2505,2.2563,2.2529,2.2695,2.269,2.27,2.2653,2.2657,2.2659,2.2643,2.2557,0,0,0,0,0,2.1703,2.1775,2.1794,2.1825,2.2005,2.2121,2.2144,2.2211,2.2204,2.2242,2.2312,2.234,2.256,2.2531,2.2561,2.2598,2.2818,2.2822,2.2826,2.2791,2.2795,2.2797,0,0,0,0,0,0,2.1716,2.1754,2.1792,2.1913,2.1955,2.2119,2.2123,2.2143,2.2202,2.2205,2.2326,2.2344,2.2403,2.252,2.2546,2.2581,2.2549,2.2819,2.2823,2.2826,2.2793,2.2795,2.2797,0,0,0,0,0,2.1726,2.1757,2.2028,2.1913,2.1949,2.2054,2.2121,2.2138,2.2184,2.2294,2.2313,2.2229,2.2402,2.2428,2.2536,2.2567,2.2531,2.2541,2.2822,2.2825,2.2827,2.2794,0,0,0,0,0,0,2.1734,2.1773,2.2037,2.205,2.1892,2.2046,2.2072,2.2133,2.2271,2.229,2.2201,2.2202,2.2402,2.2422,2.2442,2.2559,2.2517,2.2527,2.2533,2.2824,2.2826,2.2828,0,0,0,0,0,0,2.1757,2.1784,2.2043,2.2013,2.2023,2.2038,2.2062,2.2164,2.2272,2.217,2.2175,2.22,2.2372,2.2419,2.2434,2.2592,2.2506,2.2516,2.2522,2.2526,2.2826,2.2828,0,0,0,0,0,0,2.1769,2.1793,2.201,2.2018,2.2027,2.218,2.213,2.231,2.2245,2.2163,2.2241,2.2239,2.2368,2.2385,2.2429,2.2579,2.2589,2.2507,2.2513,2.2517,2.252,0,0,0,0,0,0,0,2.178,2.1609,2.1958,2.2022,2.203,2.2172,2.2176,2.218,2.2245,2.2243,2.2241,2.224,2.2455,2.2465,2.2475,2.2569,0,0,2.2506,2.251,0,0,0,0,0,0,0,0,2.1601,2.1607,2.1958,2.1961,2.1964,2.2173,2.2176,2.2179,2.2244,2.2243,2.2242,2.2241,2.2457,2.2465,2.2474,0,0,0,0,0,0,0,0,0,0,0,0,0,0,0,2.1959,2.1961,0,2.2173,2.2176,2.2178,2.2244,2.2243,2.2242,2.2241,2.246,2.2466,2.2473,0,0,0,0,0,0,0,0,0,0,0,0,0,0,0,0,0,0,0,0,0,0,0,0,0,0,0,0,0,0,0,0,0,0,0,0,0,0,0,0,0,0,0,0,0,0,0,0,0,0,0,0,0,0,0,0,0,0,0,0,0,0,0,0,0,0,0,0,0]}],[{"header":{"parameterUnit":"kt","parameterCategory":2,"dx":1,"dy":1,"la1":30.253999710083008,"la2":30.299108505249023,"lo1":-89.0895004272461,"lo2":-89.04439544677734,"nx":28,"ny":28,"refTime":"2022-09-25T21:00:00:Z","depth":0,"parameterNumber":2,"parameterNumberName":"V-component_of_WINDS"},"data":[6.4508,6.4487,6.4454,6.4415,6.4378,6.4344,6.4321,6.4287,6.4251,6.4206,6.4173,6.4136,6.4084,6.4035,6.3996,6.3979,6.3963,6.3981,6.3958,6.3915,6.3906,6.3898,6.39,6.3979,6.3979,6.4005,6.4006,6.4006,6.4478,6.4442,6.4412,6.436,6.4333,6.4297,6.4252,6.4231,6.4201,6.4157,6.4123,6.4079,6.404,6.3981,6.3936,6.3923,6.3901,6.3912,6.3911,6.3902,6.3856,6.3859,6.3931,6.3931,6.3931,6.3931,6.3931,6.3931,6.4413,6.4403,6.4352,6.4318,6.4283,6.4248,6.4231,6.4186,6.4155,6.4106,6.4072,6.4036,6.3984,6.3913,6.388,6.3849,6.3829,6.383,6.3829,6.383,6.3834,6.3794,6.3841,6.384,6.384,6.384,6.3839,0,6.4354,6.4327,6.4296,6.4255,6.4229,6.4193,6.4155,6.4144,6.4072,6.4049,6.4012,6.3985,6.393,6.389,6.384,6.3805,6.376,6.3753,6.3753,6.3767,6.3786,6.3771,6.3694,6.3751,6.375,6.375,6.3749,6.3749,6.4283,6.4276,6.4206,6.4189,6.4159,6.4132,6.4109,6.4046,6.4024,6.3966,6.3958,6.3919,6.3883,6.3829,6.3773,6.3731,6.3708,6.3733,6.3701,6.3716,6.3703,6.3702,6.3699,6.3739,6.374,6.3741,6.3742,0,6.4245,6.419,6.4167,6.4098,6.4081,6.4076,6.4015,6.4002,6.3959,6.3934,6.3924,6.3856,6.382,6.376,6.3707,6.3676,6.3662,6.3643,6.3678,6.367,6.3683,6.3681,6.3745,6.3748,6.367,6.3671,6.3672,0,6.4159,6.4153,6.407,6.406,6.4049,6.3986,6.3977,6.3939,6.3894,6.3874,6.3816,6.3798,6.3724,6.3696,6.3651,6.3629,6.362,6.3594,6.3581,6.3596,6.3599,6.3579,6.3574,6.3558,6.3558,6.3557,6.3557,0,6.4102,6.4051,6.4035,6.4014,6.3939,6.3933,6.3901,6.385,6.3827,6.3788,6.3772,6.3732,6.3708,6.3677,6.3618,6.3598,6.3592,6.3552,6.3564,6.3565,6.3562,6.3562,6.3637,6.3557,6.3557,6.3557,6.3557,0,6.4022,6.3986,6.3974,6.3908,6.3897,6.3887,6.3842,6.382,6.377,6.3741,6.371,6.3663,6.3642,6.3606,6.3575,6.3565,6.3545,6.3518,6.3518,6.3508,6.3469,6.3514,6.3596,6.36,6.3504,6.3504,6.3504,0,6.3969,6.3942,6.3887,6.3876,6.3854,6.3788,6.3776,6.3734,6.3694,6.3669,6.3624,6.3596,6.3557,6.3539,6.3533,6.3484,6.3498,6.3481,6.3439,6.3438,6.345,6.3526,6.3551,6.3586,6.3497,6.3498,6.3499,0,6.392,6.383,6.3832,6.3803,6.3739,6.3721,6.3709,6.3666,6.3652,6.3613,6.3597,6.3559,6.3526,6.3498,6.3455,6.3451,6.3487,6.3416,6.3414,6.3427,6.3491,6.3514,6.352,6.3458,6.3459,6.3459,6.3494,0,6.3804,6.3784,6.3789,6.3731,6.3709,6.37,6.3636,6.362,6.3581,6.3538,6.3517,6.3467,6.3424,6.3417,6.3379,6.3391,6.3378,6.3344,6.3301,6.3354,6.3362,6.3367,6.3293,6.3291,6.329,6.3289,0,0,6.3764,6.3734,6.3673,6.3659,6.3635,6.3566,6.3561,6.3531,6.3471,6.3455,6.3432,6.3369,6.3329,6.3309,6.3321,6.3305,6.33,6.3285,6.333,6.3335,6.334,6.3351,6.3356,6.3286,6.3286,6.3285,6.3285,0,6.3707,6.3672,6.3669,6.3635,6.3581,6.3537,6.3537,6.3471,6.3443,6.3424,6.3365,6.3345,6.3299,6.3262,6.3238,6.3287,6.3242,6.3279,6.3325,6.3319,6.3326,6.3332,6.3344,6.335,6.3281,6.3282,6.3282,0,6.3643,6.3596,6.3589,6.3534,6.3499,6.3479,6.3419,6.3402,6.3386,6.331,6.3291,6.3255,6.3203,6.3195,6.3189,6.3166,6.3192,6.3175,6.3181,6.3178,6.3169,6.3177,6.3185,6.3087,6.3086,6.3086,0,0,6.3603,6.3584,6.3512,6.3517,6.3499,6.3433,6.3417,6.3375,6.333,6.3313,6.3265,6.3223,6.3193,6.3176,6.3146,6.3148,6.3129,6.3153,6.3162,6.317,6.3171,6.3164,6.3173,6.3084,6.3084,6.3084,0,0,6.3582,6.3499,6.3467,6.3465,6.3426,6.3354,6.3359,6.3317,6.3284,6.3278,6.3206,6.3192,6.3183,6.315,6.3136,6.3129,6.3089,6.3091,6.3151,6.3161,6.317,6.3176,6.3066,0,0,0,0,0,6.349,6.3509,6.3482,6.3472,6.3402,6.337,6.3361,6.3302,6.3274,6.3279,6.3232,6.3186,6.3127,6.3113,6.3104,6.3119,6.3064,6.3068,6.3071,6.3148,6.316,6.317,0,0,0,0,0,0,6.3486,6.3474,6.3481,6.3412,6.3395,6.3369,6.3308,6.3292,6.3272,6.3263,6.3197,6.3184,6.3133,6.3114,6.3107,6.3122,6.3068,6.3065,6.3068,6.3071,6.3152,6.3162,6.317,0,0,0,0,0,6.3482,6.3472,6.3377,6.3411,6.3397,6.3323,6.3307,6.3293,6.3276,6.3203,6.3189,6.3234,6.3135,6.3125,6.3109,6.3127,6.3073,6.307,6.3067,6.307,6.3072,6.3157,0,0,0,0,0,0,6.3479,6.3459,6.3373,6.3366,6.3399,6.3324,6.331,6.3294,6.3216,6.3203,6.3237,6.3231,6.3137,6.3128,6.3121,6.3131,6.3077,6.3074,6.3073,6.3069,6.3071,6.3073,0,0,0,0,0,0,6.3464,6.3454,6.3369,6.3358,6.3349,6.3324,6.3312,6.3291,6.3216,6.3254,6.3246,6.3235,6.3148,6.3131,6.3125,6.3095,6.308,6.3077,6.3076,6.3075,6.3071,6.3072,0,0,0,0,0,0,6.3459,6.345,6.3359,6.3353,6.3345,6.3267,6.3304,6.3237,6.3207,6.3258,6.3203,6.3201,6.3152,6.3144,6.3128,6.3101,6.3096,6.308,6.3078,6.3077,6.3076,0,0,0,0,0,0,0,6.3455,6.3525,6.3412,6.3349,6.3342,6.3306,6.3304,6.3302,6.3207,6.3205,6.3203,6.3202,6.3094,6.3091,6.3088,6.3106,0,0,6.308,6.3079,0,0,0,0,0,0,0,0,6.3527,6.3525,6.3412,6.341,6.3409,6.3306,6.3304,6.3303,6.3207,6.3205,6.3204,6.3203,6.3093,6.3091,6.3089,0,0,0,0,0,0,0,0,0,0,0,0,0,0,0,6.3411,6.341,0,6.3306,6.3304,6.3303,6.3206,6.3205,6.3204,6.3203,6.3093,6.3091,6.3089,0,0,0,0,0,0,0,0,0,0,0,0,0,0,0,0,0,0,0,0,0,0,0,0,0,0,0,0,0,0,0,0,0,0,0,0,0,0,0,0,0,0,0,0,0,0,0,0,0,0,0,0,0,0,0,0,0,0,0,0,0,0,0,0,0,0,0,0,0]}]]]